Location: Unspecified
(41.5000°N, 0.0000°E)
Time: 08:20:47
(UTC+00:00)

deb Explorer IX - Pass Details

Date: 04 October 2020
Orbit: 537 x 1106 km, 38.8° (Epoch: 19 October)

Event Time Altitude Azimuth Distance (km) Brightness Sun altitude
Rises 19:50:33 0° 275° (W) 2,959 ? -25.7°
Reaches altitude 10° 19:53:20 10° 261° (W) 1,962 ? -26.2°
Enters shadow 19:56:27 24° 218° (SW) 1,219 ? -26.8°
